CZ-4 DEB, 28074

Orbit data source: Space-Track

CZ-4 DEB, 28074 is space debris in SSO originally from a launch on Thu, 14 Oct 1999 UTC launched from the Taiyaun Space Center, China (TSC). Debris objects in space refer to the collection of defunct objects orbiting the Earth. Examples of debris include non-operational satellites, rocket bodies, and fragments generated from explosions, collisions, or faulty payload assembly.

Loading next visibility...
Identifier
28074, 1999-057NE
Orbit
SSO
Country
Flag of CNCN / PRC
Related business
Manufacturer
Unknown
Mission
Spacecraft
Bus & Motor
Unknown
Mass
Unknown
Launch date (UTC)
1999-10-14 (26 years ago)
Launch vehicle
Unknown
Launch site
Taiyaun Space Center, China (TSC)
Object type
Payload
Rocket body
Debris
Shape & HBR
Unknown shape, 0.1 m
Radar Cross Section
Small (<0.1 m²)

Expand to show TLE details & history
Last TLE update: 21 hours ago

TLE from 21 hours ago
0 CZ-4 DEB
1 28074U 99057NE  26036.36759444  .00000261  00000-0  10396-3 0  9991
2 28074  98.8475  74.3409 0103281  33.9240  38.5418 14.34062267204603
Epoch: 2026-02-05T08:49Z
TLE epoch observation values (Epoch: 2026-02-05T08:49:20.159Z)
Latitude
71.15749°
Longitude
139.5058°
Altitude
732.906 km
Speed
7.525 km/s
True Right ascension
03h 09m 26s
True Declination
71° 03' 06"
Sunlit
Object was in daylight at epoch
Visualization orbit readout
Latitude
Unknown
Longitude
Unknown
Altitude
Unknown
Speed
Unknown
Apparent Right ascension
Unknown
Apparent Declination
Unknown
Sunlit
N/A
Visualization observer readout
Local Sidereal Time
07:35:43
Azimuth
Unknown
Elevation
Unknown
Doppler factor
Unknown
Orbital elements
Apogee altitude
849.212 km
Perigee altitude
701.449 km
Semi-major axis
7,153.467 km
Eccentricity
0.01033
Inclination
98.8475°
RAAN
74.3409°
Arg. of periapsis
33.924°
True anomaly
39.28673°
Mean anomaly
38.5418°
Eccentric anomaly
38.91351°
Mean motion
3.5873 °/min
Orbital period
100.35 mins
BSTAR
0.00010396
Loading maneuver chart data...
Computing Atmospheric mass density...
Loading historical data...
Loading historical data...
Loading historical data...
Loading historical data...
Loading historical data...
Loading historical data...
Loading historical data...

Documentation

Showing up to 5 results
|